When you browse on this site, cookies collect data to enhance your experience and personalize the content and advertising you see.
Visit our Privacy Policy to learn more. By continuing to use the site, you agree to this use of cookies and data.
  • In Belgien
  • Länderverzeichnis
  • Für 7 Tage
  • Wassertemperatur
  • Wetterkarte
  • Widgets
  • user-avatar
    Anmelden

    Stündliche Wetter Goldene Küste

    Heute, 7 Dezember, Samstag

    Zeit Temperatur Niederschläge Wind Luftdruck Luftfeuchtigkeit
    00:00 +22°C° 0 mm 3 m/S 752 mmHg 76%
    01:00 +22°C° 0 mm 3 m/S 752 mmHg 77%
    02:00 +23°C° 0 mm 2 m/S 752 mmHg 72%
    03:00 +23°C° 0 mm 2 m/S 752 mmHg 68%
    04:00 +23°C° 0 mm 2 m/S 752 mmHg 62%
    05:00 +25°C° 0 mm 1 m/S 753 mmHg 52%
    06:00 +28°C° 0 mm 1 m/S 753 mmHg 42%
    07:00 +31°C° 0 mm 1 m/S 754 mmHg 32%
    08:00 +33°C° 0 mm 1 m/S 754 mmHg 27%
    09:00 +36°C° 0 mm 2 m/S 753 mmHg 23%
    10:00 +38°C° 0 mm 3 m/S 753 mmHg 18%
    11:00 +37°C° 0 mm 3 m/S 753 mmHg 22%
    12:00 +36°C° 0 mm 4 m/S 753 mmHg 25%
    13:00 +35°C° 0 mm 5 m/S 753 mmHg 28%
    14:00 +34°C° 0 mm 5 m/S 752 mmHg 35%
    15:00 +32°C° 0 mm 5 m/S 752 mmHg 42%
    16:00 +30°C° 0 mm 4 m/S 752 mmHg 49%
    17:00 +28°C° 0 mm 4 m/S 753 mmHg 59%
    18:00 +26°C° 0 mm 4 m/S 754 mmHg 68%
    19:00 +23°C° 0 mm 4 m/S 755 mmHg 78%
    20:00 +23°C° 0 mm 4 m/S 756 mmHg 81%
    21:00 +22°C° 0 mm 4 m/S 756 mmHg 84%
    22:00 +21°C° 0 mm 5 m/S 757 mmHg 87%
    23:00 +21°C° 0 mm 4 m/S 757 mmHg 89%

    Morgen, 8 Dezember, Sonntag

    Zeit Temperatur Niederschläge Wind Luftdruck Luftfeuchtigkeit
    00:00 +20°C° 0 mm 4 m/S 757 mmHg 91%
    01:00 +20°C° 0 mm 3 m/S 757 mmHg 93%
    02:00 +19°C° 0 mm 4 m/S 757 mmHg 94%
    03:00 +19°C° 0 mm 4 m/S 757 mmHg 94%
    04:00 +19°C° 0 mm 4 m/S 757 mmHg 95%
    05:00 +21°C° 0 mm 4 m/S 757 mmHg 87%
    06:00 +22°C° 0 mm 4 m/S 758 mmHg 80%
    07:00 +25°C° 0 mm 5 m/S 759 mmHg 72%
    08:00 +27°C° 0 mm 5 m/S 759 mmHg 66%
    09:00 +28°C° 0 mm 5 m/S 759 mmHg 60%
    10:00 +29°C° 0 mm 5 m/S 759 mmHg 53%
    11:00 +30°C° 0 mm 5 m/S 759 mmHg 51%
    12:00 +32°C° 0 mm 6 m/S 758 mmHg 49%
    13:00 +33°C° 0 mm 6 m/S 758 mmHg 47%
    14:00 +32°C° 0 mm 6 m/S 758 mmHg 52%
    15:00 +30°C° 0 mm 6 m/S 758 mmHg 56%
    16:00 +29°C° 0 mm 7 m/S 757 mmHg 61%
    17:00 +27°C° 0 mm 6 m/S 758 mmHg 68%
    18:00 +25°C° 0 mm 5 m/S 759 mmHg 76%
    19:00 +23°C° 0 mm 5 m/S 760 mmHg 84%
    20:00 +23°C° 0.1 mm 4 m/S 760 mmHg 86%
    21:00 +23°C° 0.1 mm 4 m/S 761 mmHg 88%
    22:00 +22°C° 0.1 mm 4 m/S 762 mmHg 90%
    23:00 +22°C° 0.2 mm 4 m/S 761 mmHg 92%

    übermorgen, 9 Dezember, Montag

    Zeit Temperatur Niederschläge Wind Luftdruck Luftfeuchtigkeit
    00:00 +22°C° 0.2 mm 3 m/S 761 mmHg 93%
    01:00 +22°C° 0.2 mm 3 m/S 761 mmHg 94%
    02:00 +22°C° 0.3 mm 3 m/S 761 mmHg 95%
    03:00 +22°C° 0.3 mm 3 m/S 761 mmHg 96%
    04:00 +22°C° 0.3 mm 3 m/S 761 mmHg 97%
    05:00 +24°C° 0.3 mm 3 m/S 761 mmHg 94%
    06:00 +23°C° 0.3 mm 4 m/S 761 mmHg 92%
    07:00 +25°C° 0.3 mm 4 m/S 762 mmHg 90%
    08:00 +26°C° 0.2 mm 4 m/S 762 mmHg 85%
    09:00 +27°C° 0.2 mm 4 m/S 762 mmHg 81%
    10:00 +28°C° 0.2 mm 4 m/S 762 mmHg 77%
    11:00 +28°C° 0.1 mm 4 m/S 761 mmHg 74%
    12:00 +29°C° 0.1 mm 5 m/S 761 mmHg 71%
    13:00 +29°C° 0.1 mm 5 m/S 760 mmHg 68%
    14:00 +28°C° 0 mm 5 m/S 760 mmHg 72%
    15:00 +27°C° 0 mm 4 m/S 760 mmHg 75%
    16:00 +27°C° 0 mm 4 m/S 759 mmHg 78%
    17:00 +26°C° 0 mm 4 m/S 760 mmHg 83%
    18:00 +25°C° 0 mm 3 m/S 760 mmHg 87%
    19:00 +24°C° 0 mm 3 m/S 760 mmHg 91%
    20:00 +24°C° 0 mm 2 m/S 760 mmHg 92%
    21:00 +24°C° 0 mm 2 m/S 761 mmHg 93%
    22:00 +23°C° 0 mm 2 m/S 761 mmHg 94%
    23:00 +24°C° 0 mm 2 m/S 760 mmHg 94%

    10 Dezember, Dienstag

    Zeit Temperatur Niederschläge Wind Luftdruck Luftfeuchtigkeit
    00:00 +24°C° 0 mm 2 m/S 760 mmHg 94%
    01:00 +24°C° 0 mm 2 m/S 759 mmHg 93%
    02:00 +24°C° 0.1 mm 2 m/S 759 mmHg 94%
    03:00 +24°C° 0.1 mm 2 m/S 759 mmHg 95%
    04:00 +23°C° 0.1 mm 2 m/S 759 mmHg 95%
    05:00 +25°C° 0 mm 2 m/S 759 mmHg 91%
    06:00 +26°C° 0 mm 2 m/S 759 mmHg 86%
    07:00 +27°C° 0 mm 2 m/S 759 mmHg 82%
    08:00 +28°C° 0 mm 2 m/S 759 mmHg 76%
    09:00 +29°C° 0 mm 3 m/S 759 mmHg 70%
    10:00 +30°C° 0 mm 3 m/S 758 mmHg 64%
    11:00 +32°C° 0 mm 4 m/S 758 mmHg 60%
    12:00 +33°C° 0 mm 4 m/S 757 mmHg 57%
    13:00 +34°C° 0 mm 5 m/S 756 mmHg 54%
    14:00 +33°C° 0 mm 5 m/S 756 mmHg 57%
    15:00 +32°C° 0 mm 5 m/S 756 mmHg 61%
    16:00 +30°C° 0 mm 6 m/S 755 mmHg 65%
    17:00 +28°C° 0.2 mm 5 m/S 756 mmHg 73%
    18:00 +27°C° 0.2 mm 4 m/S 756 mmHg 81%
    19:00 +25°C° 0.2 mm 3 m/S 757 mmHg 89%
    20:00 +25°C° 0.1 mm 3 m/S 757 mmHg 91%
    21:00 +24°C° 0.1 mm 2 m/S 757 mmHg 93%
    22:00 +24°C° 0.1 mm 2 m/S 758 mmHg 95%
    23:00 +22°C° 0 mm 3 m/S 757 mmHg 96%

    11 Dezember, Mittwoch

    Zeit Temperatur Niederschläge Wind Luftdruck Luftfeuchtigkeit
    00:00 +22°C° 0 mm 3 m/S 756 mmHg 96%
    01:00 +22°C° 0 mm 3 m/S 756 mmHg 97%
    02:00 +22°C° 0 mm 3 m/S 755 mmHg 97%
    03:00 +22°C° 0 mm 3 m/S 755 mmHg 97%
    04:00 +24°C° 0 mm 3 m/S 755 mmHg 96%
    05:00 +24°C° 0 mm 3 m/S 755 mmHg 93%
    06:00 +25°C° 0 mm 3 m/S 756 mmHg 90%
    07:00 +26°C° 0 mm 3 m/S 756 mmHg 87%
    08:00 +28°C° 0 mm 3 m/S 756 mmHg 75%
    09:00 +30°C° 0 mm 3 m/S 756 mmHg 64%
    10:00 +33°C° 0 mm 3 m/S 756 mmHg 52%
    11:00 +34°C° 0 mm 4 m/S 756 mmHg 50%
    12:00 +35°C° 0 mm 5 m/S 755 mmHg 48%
    13:00 +36°C° 0 mm 6 m/S 754 mmHg 46%
    14:00 +34°C° 0 mm 6 m/S 754 mmHg 53%
    15:00 +32°C° 0 mm 5 m/S 754 mmHg 60%
    16:00 +30°C° 0 mm 5 m/S 754 mmHg 67%
    17:00 +28°C° 0.5 mm 4 m/S 754 mmHg 76%
    18:00 +26°C° 0.5 mm 3 m/S 755 mmHg 85%
    19:00 +24°C° 0.5 mm 1 m/S 756 mmHg 93%
    20:00 +24°C° 0 mm 2 m/S 756 mmHg 93%
    21:00 +24°C° 0 mm 3 m/S 756 mmHg 93%
    22:00 +24°C° 0 mm 3 m/S 756 mmHg 93%
    23:00 +24°C° 0 mm 3 m/S 756 mmHg 93%

    12 Dezember, Donnerstag

    Zeit Temperatur Niederschläge Wind Luftdruck Luftfeuchtigkeit
    00:00 +23°C° 0 mm 4 m/S 755 mmHg 93%
    01:00 +22°C° 0 mm 4 m/S 754 mmHg 92%
    02:00 +22°C° 0 mm 4 m/S 754 mmHg 92%
    03:00 +22°C° 0 mm 4 m/S 754 mmHg 92%
    04:00 +22°C° 0 mm 3 m/S 754 mmHg 92%
    05:00 +24°C° 0 mm 3 m/S 754 mmHg 87%
    06:00 +25°C° 0 mm 3 m/S 755 mmHg 82%
    07:00 +26°C° 0 mm 3 m/S 755 mmHg 76%
    08:00 +28°C° 0 mm 4 m/S 755 mmHg 66%
    09:00 +30°C° 0 mm 4 m/S 755 mmHg 56%
    10:00 +33°C° 0 mm 5 m/S 755 mmHg 46%
    11:00 +34°C° 0 mm 5 m/S 754 mmHg 45%
    12:00 +34°C° 0 mm 5 m/S 754 mmHg 43%
    13:00 +35°C° 0 mm 6 m/S 753 mmHg 42%
    14:00 +34°C° 0 mm 6 m/S 752 mmHg 46%
    15:00 +33°C° 0 mm 6 m/S 752 mmHg 50%
    16:00 +30°C° 0 mm 6 m/S 751 mmHg 54%
    17:00 +28°C° 0.3 mm 6 m/S 752 mmHg 65%
    18:00 +26°C° 0.3 mm 5 m/S 752 mmHg 75%
    19:00 +23°C° 0.3 mm 5 m/S 753 mmHg 86%
    20:00 +22°C° 1.8 mm 4 m/S 754 mmHg 89%
    21:00 +22°C° 1.8 mm 4 m/S 754 mmHg 92%
    22:00 +21°C° 1.8 mm 3 m/S 755 mmHg 95%
    23:00 +21°C° 0 mm 4 m/S 754 mmHg 95%
    Mehr zeigen